CW4488 Weather Reports


time (UTC)temp
C
wind
direction
speed
KPH
gust
KPH
rain 1hr
cm
rain 24hr
cm
rain mn
cm
humidity
%
barometer
mb
20260507023608 16 234 6.4 11.3 0.00 0.00 0.00 77 1015.2
20260507023113 16 262 6.4 12.9 0.00 0.00 0.00 76 1015.2
20260507022616 16 213 6.4 12.9 0.00 0.00 0.00 75 1015.2
20260507022121 17 240 4.8 12.9 0.00 0.00 0.00 73 1015.2
20260507021620 17 232 8.0 12.9 0.00 0.00 0.00 72 1015.2
20260507021121 17 204 4.8 11.3 0.00 0.00 0.00 71 1015.2
20260507020617 17 246 8.0 11.3 0.00 0.00 0.00 69 1015.2
20260507020122 17 223 4.8 11.3 0.00 0.00 0.00 69 1015.2
20260507015615 17 215 4.8 11.3 0.00 0.00 0.00 69 1015.1
20260507015119 18 231 4.8 11.3 0.00 0.00 0.00 68 1015.1
20260507014611 18 244 4.8 9.7 0.00 0.00 0.00 68 1015.1
20260507014114 18 184 6.4 9.7 0.00 0.00 0.00 68 1015.1
20260507013617 18 251 6.4 9.7 0.00 0.00 0.00 69 1015.1
20260507013120 17 238 4.8 12.9 0.00 0.00 0.00 68 1015.1
20260507012627 17 236 8.0 14.5 0.00 0.00 0.00 68 1015.1
20260507012123 18 240 8.0 14.5 0.00 0.00 0.00 67 1015.1
20260507011633 18 254 9.7 12.9 0.00 0.00 0.00 67 1015.1
20260507011115 18 241 8.0 12.9 0.00 0.00 0.00 67 1015.2
20260507010622 18 277 4.8 12.9 0.00 0.00 0.00 66 1015.2
20260507010115 18 236 6.4 16.1 0.00 0.00 0.00 64 1015.2
20260507005618 18 249 9.7 14.5 0.00 0.00 0.00 62 1015.2
20260507005110 19 271 6.4 12.9 0.00 0.00 0.00 63 1015.2
20260507004607 19 221 4.8 16.1 0.00 0.00 0.00 63 1015.2
20260507004114 19 213 8.0 16.1 0.00 0.00 0.00 63 1015.3
20260507003608 18 198 8.0 22.5 0.00 0.00 0.00 63 1015.3
20260507003104 18 285 8.0 22.5 0.00 0.00 0.00 62 1015.3
20260507002610 19 226 8.0 17.7 0.00 0.00 0.00 61 1015.2
20260507002108 19 267 6.4 17.7 0.00 0.00 0.00 61 1015.2
20260507001617 20 254 8.0 16.1 0.00 0.00 0.00 60 1015.2
20260507001116 19 261 8.0 16.1 0.00 0.00 0.00 60 1015.2
20260507000611 19 238 4.8 16.1 0.00 0.00 0.00 59 1015.2
20260507000114 19 214 9.7 17.7 0.00 0.00 0.00 59 1015.2
20260506235609 19 210 9.7 17.7 0.00 0.00 0.00 56 1015.3
20260506235111 20 228 9.7 16.1 0.00 0.00 0.00 56 1015.3
20260506234627 20 246 9.7 20.9 0.00 0.00 0.00 57 1015.3
20260506234116 20 238 9.7 19.3 0.00 0.00 0.00 57 1015.3
20260506233608 20 292 9.7 19.3 0.00 0.00 0.00 57 1015.3
20260506233107 19 286 11.3 22.5 0.00 0.00 0.00 58 1015.3
20260506232603 19 259 12.9 25.7 0.00 0.00 0.00 58 1015.5
20260506232104 20 235 16.1 25.7 0.00 0.00 0.00 58 1015.5
20260506231557 19 244 11.3 22.5 0.00 0.00 0.00 58 1015.5
20260506224655 20 235 11.3 17.7 0.00 0.00 0.00 59 1015.7
20260506224140 20 232 9.7 20.9 0.00 0.00 0.00 59 1016.0
20260506223636 20 254 12.9 20.9 0.00 0.00 0.00 59 1016.0
20260506223133 20 237 11.3 20.9 0.00 0.00 0.00 59 1016.0
20260506222616 20 225 9.7 20.9 0.00 0.00 0.00 59 1016.2
20260506222117 20 230 11.3 22.5 0.00 0.00 0.00 59 1016.2
20260506221627 20 286 12.9 22.5 0.00 0.00 0.00 58 1016.2
20260506221138 20 220 9.7 19.3 0.00 0.00 0.00 58 1016.6
20260506220631 20 238 8.0 22.5 0.00 0.00 0.00 56 1016.6
20260506220116 20 231 11.3 19.3 0.00 0.00 0.00 57 1016.6
20260506215621 20 279 9.7 19.3 0.00 0.00 0.00 57 1016.7
20260506215122 20 320 9.7 19.3 0.00 0.00 0.00 58 1016.7
20260506214632 20 236 11.3 19.3 0.00 0.00 0.00 57 1016.7
20260506214117 20 246 8.0 16.1 0.00 0.00 0.00 57 1016.7
20260506213615 21 213 9.7 19.3 0.00 0.00 0.00 57 1016.7
20260506213135 20 252 8.0 24.1 0.00 0.00 0.00 58 1016.7
20260506212641 20 214 9.7 24.1 0.00 0.00 0.00 57 1016.8
20260506212135 20 213 12.9 22.5 0.00 0.00 0.00 56 1016.8
20260506211617 21 262 6.4 19.3 0.00 0.00 0.00 57 1016.8
20260506211113 21 217 11.3 19.3 0.00 0.00 0.00 56 1017.1
20260506210616 20 233 6.4 19.3 0.00 0.00 0.00 57 1017.1
20260506210110 20 238 11.3 19.3 0.00 0.00 0.00 57 1017.1
20260506205603 20 215 9.7 20.9 0.00 0.00 0.00 56 1017.1
20260506205112 20 250 9.7 20.9 0.00 0.00 0.00 57 1017.1
20260506204614 20 234 12.9 17.7 0.00 0.00 0.00 53 1017.1
20260506204111 20 242 8.0 19.3 0.00 0.00 0.00 55 1017.1
20260506203613 20 237 8.0 19.3 0.00 0.00 0.00 57 1017.1
20260506203113 20 176 9.7 17.7 0.00 0.00 0.00 58 1017.1
20260506202611 20 163 8.0 20.9 0.00 0.00 0.00 56 1017.2
20260506202112 20 207 9.7 22.5 0.00 0.00 0.00 58 1017.2
20260506201610 20 212 9.7 22.5 0.00 0.00 0.00 59 1017.2
20260506201100 20 200 11.3 22.5 0.00 0.00 0.00 57 1017.4
20260506200609 20 240 11.3 22.5 0.00 0.00 0.00 58 1017.4
20260506200113 20 229 9.7 17.7 0.00 0.00 0.00 58 1017.4
20260506195614 20 218 6.4 20.9 0.00 0.00 0.00 58 1017.5
20260506195119 20 240 11.3 20.9 0.00 0.00 0.00 60 1017.5
20260506194627 20 225 9.7 17.7 0.00 0.00 0.00 58 1017.5
20260506194126 20 209 9.7 19.3 0.00 0.00 0.00 59 1017.6
20260506193620 20 201 9.7 19.3 0.00 0.00 0.00 60 1017.6
20260506193113 20 213 8.0 16.1 0.00 0.00 0.00 61 1017.6
20260506192608 19 236 8.0 19.3 0.00 0.00 0.00 61 1017.7
20260506192105 20 164 8.0 20.9 0.00 0.00 0.00 60 1017.7
20260506191600 20 182 11.3 20.9 0.00 0.00 0.00 60 1017.7
20260506191055 20 209 8.0 20.9 0.00 0.00 0.00 60 1017.7
20260506190604 20 239 8.0 17.7 0.00 0.00 0.00 60 1017.7
20260506190100 19 246 8.0 19.3 0.00 0.00 0.00 61 1017.7
20260506185601 19 226 9.7 19.3 0.00 0.00 0.00 61 1017.7
20260506185111 19 313 6.4 19.3 0.00 0.00 0.00 62 1017.7
20260506184612 19 225 6.4 19.3 0.00 0.00 0.00 61 1017.7
20260506184109 19 217 9.7 19.3 0.00 0.00 0.00 61 1017.7
20260506183605 19 202 6.4 19.3 0.00 0.00 0.00 61 1017.7
20260506183113 19 181 11.3 19.3 0.00 0.00 0.00 62 1017.7
20260506182616 19 164 11.3 17.7 0.00 0.00 0.00 62 1017.8
20260506182100 19 200 6.4 17.7 0.00 0.00 0.00 62 1017.8
20260506181608 19 217 9.7 24.1 0.00 0.00 0.00 62 1017.8
20260506181110 19 215 11.3 24.1 0.00 0.00 0.00 62 1017.9
20260506180614 19 279 9.7 17.7 0.00 0.00 0.00 62 1017.9
20260506180116 19 211 6.4 14.5 0.00 0.00 0.00 63 1017.9
20260506175619 19 230 4.8 14.5 0.00 0.00 0.00 63 1018.0
20260506175123 19 190 6.4 14.5 0.00 0.00 0.00 62 1018.0
20260506174625 19 196 6.4 14.5 0.00 0.00 0.00 63 1018.0
20260506174139 19 211 6.4 14.5 0.00 0.00 0.00 62 1017.8
20260506173658 20 261 6.4 16.1 0.00 0.00 0.00 62 1017.8
20260506173200 20 230 8.0 16.1 0.00 0.00 0.00 62 1017.8
20260506172655 20 174 6.4 12.9 0.00 0.00 0.00 62 1017.7
20260506172138 20 198 3.2 11.3 0.00 0.00 0.00 61 1017.7
20260506171634 19 190 6.4 11.3 0.00 0.00 0.00 61 1017.7
20260506171125 19 230 3.2 11.3 0.00 0.00 0.00 62 1017.7
20260506170632 18 153 4.8 11.3 0.00 0.00 0.00 63 1017.7
20260506170153 18 215 1.6 8.0 0.00 0.00 0.00 63 1017.7
20260506165635 18 261 3.2 12.9 0.00 0.00 0.00 62 1017.8
20260506165129 18 188 6.4 16.1 0.00 0.00 0.00 63 1017.8
20260506164635 18 223 6.4 16.1 0.00 0.00 0.00 62 1017.8
20260506164151 18 200 3.2 9.7 0.00 0.00 0.00 63 1017.8
20260506163157 18 150 1.6 9.7 0.00 0.00 0.00 65 1017.8
20260506162653 17 277 4.8 11.3 0.00 0.00 0.00 66 1017.8
20260506162149 17 281 4.8 11.3 0.00 0.00 0.00 67 1017.8
20260506161652 17 254 3.2 8.0 0.00 0.00 0.00 67 1017.8
20260506161150 17 200 0.0 8.0 0.00 0.00 0.00 68 1017.7
20260506160637 17 260 3.2 8.0 0.00 0.00 0.00 68 1017.7
20260506160136 17 261 3.2 8.0 0.00 0.00 0.00 68 1017.7
20260506155620 16 290 0.0 8.0 0.00 0.00 0.00 67 1017.7
20260506155113 16 249 1.6 6.4 0.00 0.00 0.00 67 1017.7
20260506154619 16 217 3.2 6.4 0.00 0.00 0.00 68 1017.7
20260506154116 16 288 3.2 6.4 0.00 0.00 0.00 68 1017.7
20260506153615 16 40 1.6 6.4 0.00 0.00 0.00 67 1017.7
20260506153108 16 10 3.2 6.4 0.00 0.00 0.00 67 1017.7
20260506152601 16 30 3.2 6.4 0.00 0.00 0.00 69 1017.7
20260506152101 15 37 3.2 8.0 0.00 0.00 0.00 70 1017.7
20260506151609 15 9 3.2 8.0 0.00 0.00 0.00 71 1017.7
20260506151115 15 5 3.2 6.4 0.00 0.00 0.00 72 1017.7
20260506150607 14 49 3.2 6.4 0.00 0.00 0.00 73 1017.7
20260506150118 14 339 4.8 8.0 0.00 0.00 0.00 74 1017.7
20260506145602 13 14 3.2 8.0 0.00 0.00 0.00 75 1017.7
20260506145054 13 346 4.8 8.0 0.00 0.00 0.00 76 1017.7
20260506144624 13 53 3.2 8.0 0.00 0.00 0.00 77 1017.7
20260506144111 13 355 4.8 8.0 0.00 0.00 0.00 78 1017.6
20260506143603 12 346 3.2 9.7 0.00 0.00 0.00 79 1017.6
20260506143108 12 360 1.6 8.0 0.00 0.00 0.00 80 1017.6
20260506142607 12 360 4.8 8.0 0.00 0.00 0.00 81 1017.5
20260506142114 12 355 1.6 6.4 0.00 0.00 0.00 82 1017.5
20260506141616 11 340 3.2 6.4 0.00 0.00 0.00 83 1017.5
20260506141108 11 17 3.2 8.0 0.00 0.00 0.00 84 1017.4
20260506140602 11 5 1.6 8.0 0.00 0.00 0.00 85 1017.4
20260506140113 10 11 4.8 8.0 0.00 0.00 0.00 85 1017.4
20260506135616 10 351 1.6 8.0 0.00 0.00 0.00 86 1017.2
20260506135125 10 360 4.8 8.0 0.00 0.00 0.00 86 1017.2
20260506134640 10 5 0.0 4.8 0.00 0.00 0.00 86 1017.2
20260506134144 10 44 1.6 6.4 0.00 0.00 0.00 86 1017.2
20260506133636 10 13 3.2 6.4 0.00 0.00 0.00 86 1017.2
20260506133119 10 46 3.2 6.4 0.00 0.00 0.00 86 1017.2
20260506132623 10 29 1.6 6.4 0.00 0.00 0.00 86 1017.2
20260506132132 10 350 1.6 6.4 0.00 0.00 0.00 86 1017.2
20260506131626 10 360 4.8 6.4 0.00 0.00 0.00 86 1017.2
20260506131129 10 10 1.6 6.4 0.00 0.00 0.00 86 1017.1
20260506130643 10 355 1.6 6.4 0.00 0.00 0.00 86 1017.1
20260506130146 10 24 1.6 8.0 0.00 0.00 0.00 86 1017.1
20260506125155 10 343 3.2 6.4 0.00 0.00 0.00 87 1017.0
20260506124155 10 17 3.2 8.0 0.00 0.00 0.00 86 1016.9
20260506122656 10 360 4.8 8.0 0.00 0.00 0.00 86 1016.7
20260506122151 10 5 6.4 8.0 0.00 0.00 0.00 86 1016.7
20260506121638 10 355 4.8 11.3 0.00 0.00 0.00 86 1016.7
20260506121135 10 13 8.0 11.3 0.00 0.00 0.00 86 1016.6
20260506120616 10 13 6.4 9.7 0.00 0.00 0.00 86 1016.6
20260506120119 10 360 6.4 8.0 0.00 0.00 0.00 86 1016.6
20260506115622 10 40 4.8 8.0 0.00 0.00 0.00 86 1016.6
20260506115125 10 5 3.2 8.0 0.00 0.00 0.00 86 1016.6
20260506114639 10 20 4.8 8.0 0.00 0.00 0.00 86 1016.6
20260506114155 10 360 4.8 8.0 0.00 0.00 0.00 86 1016.4
20260506113143 10 5 4.8 8.0 0.00 0.00 0.00 86 1016.4
20260506112641 10 13 1.6 6.4 0.00 0.00 0.00 86 1016.5
20260506112145 10 40 3.2 9.7 0.00 0.00 0.00 86 1016.5
20260506111636 10 360 4.8 11.3 0.00 0.00 0.00 86 1016.5
20260506111118 10 15 6.4 11.3 0.00 0.00 0.00 86 1016.5
20260506110614 10 350 8.0 11.3 0.00 0.00 0.00 86 1016.5
20260506110113 10 330 8.0 12.9 0.00 0.00 0.00 86 1016.5
20260506105617 10 12 8.0 12.9 0.00 0.00 0.00 86 1016.3
20260506105111 10 360 8.0 11.3 0.00 0.00 0.00 86 1016.3
20260506104618 10 355 4.8 8.0 0.00 0.00 0.00 86 1016.3
20260506104111 10 331 1.6 8.0 0.00 0.00 0.00 85 1016.3
20260506103616 11 355 4.8 8.0 0.00 0.00 0.00 85 1016.3
20260506103107 11 5 4.8 8.0 0.00 0.00 0.00 85 1016.3
20260506102611 11 36 1.6 4.8 0.00 0.00 0.00 85 1016.4
20260506102112 11 30 1.6 4.8 0.00 0.00 0.00 84 1016.4
20260506101607 11 36 1.6 4.8 0.00 0.00 0.00 84 1016.4
20260506101107 11 29 1.6 4.8 0.00 0.00 0.00 84 1016.2
20260506100616 11 42 0.0 4.8 0.00 0.00 0.00 84 1016.2
20260506100124 11 59 0.0 4.8 0.00 0.00 0.00 84 1016.2
20260506095626 11 63 1.6 4.8 0.00 0.00 0.00 84 1016.6
20260506095119 11 56 1.6 8.0 0.00 0.00 0.00 84 1016.6
20260506094626 11 71 1.6 8.0 0.00 0.00 0.00 84 1016.6
20260506094143 11 61 3.2 8.0 0.00 0.00 0.00 83 1016.7
20260506093657 11 33 3.2 8.0 0.00 0.00 0.00 83 1016.7
20260506093152 12 360 4.8 9.7 0.00 0.00 0.00 83 1016.7
20260506092636 12 43 3.2 9.7 0.00 0.00 0.00 83 1016.7
20260506092118 12 50 1.6 6.4 0.00 0.00 0.00 84 1016.7
20260506091624 12 67 1.6 8.0 0.00 0.00 0.00 84 1016.7
20260506091128 12 69 3.2 8.0 0.00 0.00 0.00 84 1016.7
20260506090613 12 90 1.6 8.0 0.00 0.00 0.00 84 1016.7
20260506090137 12 67 1.6 4.8 0.00 0.00 0.00 84 1016.7
20260506085631 12 71 1.6 4.8 0.00 0.00 0.00 84 1016.8
20260506085137 12 78 1.6 6.4 0.00 0.00 0.00 84 1016.8
20260506084632 12 65 1.6 4.8 0.00 0.00 0.00 84 1016.8
20260506084116 12 78 0.0 4.8 0.00 0.00 0.00 84 1016.8
20260506083620 12 79 1.6 6.4 0.00 0.00 0.00 85 1016.8
20260506083111 12 77 3.2 6.4 0.00 0.00 0.00 85 1016.8
20260506082614 12 45 4.8 6.4 0.00 0.00 0.00 85 1017.0
20260506082109 12 65 1.6 6.4 0.00 0.00 0.00 85 1017.0
20260506081609 12 49 1.6 6.4 0.00 0.00 0.00 85 1017.0
20260506081104 12 78 0.0 4.8 0.00 0.00 0.00 85 1016.9
20260506080558 12 78 1.6 8.0 0.00 0.00 0.00 85 1016.9
20260506080110 12 70 3.2 8.0 0.00 0.00 0.00 85 1016.9
20260506073120 12 78 4.8 6.4 0.00 0.00 0.00 84 1016.7
20260506072611 12 72 3.2 6.4 0.00 0.00 0.00 83 1016.7
20260506072114 12 92 3.2 8.0 0.00 0.00 0.00 83 1016.7
20260506071617 12 79 3.2 6.4 0.00 0.00 0.00 83 1016.7
20260506071130 12 73 3.2 6.4 0.00 0.00 0.00 83 1016.6
20260506070614 12 85 3.2 6.4 0.00 0.00 0.00 83 1016.6
20260506070114 12 90 3.2 6.4 0.00 0.00 0.00 82 1016.6
20260506062109 13 105 3.2 4.8 0.00 0.00 0.00 81 1016.0
20260506061602 13 105 1.6 6.4 0.00 0.00 0.00 81 1016.0
20260506061113 13 84 3.2 6.4 0.00 0.00 0.00 81 1016.0
20260506060608 13 96 1.6 6.4 0.00 0.00 0.00 82 1016.0
20260506060116 13 92 3.2 8.0 0.00 0.00 0.00 81 1016.0
20260506051117 13 217 0.0 4.8 0.00 0.00 0.00 82 1015.5
20260506050615 13 209 1.6 4.8 0.00 0.00 0.00 82 1015.5
20260506050117 13 229 0.0 6.4 0.00 0.00 0.00 82 1015.5
20260506045118 13 205 1.6 8.0 0.00 0.00 0.00 82 1015.3
20260506044608 13 174 3.2 8.0 0.00 0.00 0.00 82 1015.3
20260506044107 13 232 3.2 8.0 0.00 0.00 0.00 81 1015.2
20260506043611 13 212 3.2 9.7 0.00 0.00 0.00 81 1015.2
20260506043110 13 197 3.2 9.7 0.00 0.00 0.00 81 1015.2
20260506042616 13 217 4.8 9.7 0.00 0.00 0.00 81 1015.1
20260506042117 14 205 1.6 6.4 0.00 0.00 0.00 80 1015.1
20260506041619 14 219 1.6 8.0 0.00 0.00 0.00 80 1015.1
20260506041112 14 188 4.8 8.0 0.00 0.00 0.00 80 1014.9
20260506040605 14 210 3.2 8.0 0.00 0.00 0.00 80 1014.9
20260506040109 14 211 1.6 8.0 0.00 0.00 0.00 80 1014.9
20260506035605 14 223 1.6 8.0 0.00 0.00 0.00 80 1014.6
20260506035115 14 213 3.2 6.4 0.00 0.00 0.00 79 1014.6
20260506034607 14 210 3.2 8.0 0.00 0.00 0.00 79 1014.6
20260506034109 14 211 4.8 8.0 0.00 0.00 0.00 79 1014.5
20260506033608 14 210 3.2 8.0 0.00 0.00 0.00 79 1014.5
20260506033118 14 216 1.6 11.3 0.00 0.00 0.00 79 1014.5
20260506032620 14 240 6.4 11.3 0.00 0.00 0.00 79 1014.1
20260506032143 14 215 3.2 8.0 0.00 0.00 0.00 79 1014.1
20260506031647 14 207 1.6 9.7 0.00 0.00 0.00 78 1014.1
20260506031202 14 177 4.8 9.7 0.00 0.00 0.00 78 1014.0
20260506030159 15 173 6.4 12.9 0.00 0.00 0.00 76 1014.0
20260506025655 15 197 6.4 12.9 0.00 0.00 0.00 76 1013.5
20260506025149 15 212 4.8 11.3 0.00 0.00 0.00 74 1013.5
20260506024655 15 205 6.4 11.3 0.00 0.00 0.00 74 1013.5
20260506024150 15 213 6.4 11.3 0.00 0.00 0.00 73 1013.5